Location: Bittkow
(50.3000°N, 19.0000°E)
Time: 05:30:39
(UTC+00:00)

Cosmos 1606 - Pass Details

Date: 19 September 2020
Orbit: 504 x 527 km, 82.5° (Epoch: 20 October)

Event Time Altitude Azimuth Distance (km) Brightness Sun altitude
Exits shadow 01:58:58 31° 334° (NNW) 919 4.0 -22.9°
Drops below altitude 10° 02:01:17 10° 358° (N) 1,732 5.7 -22.6°
Sets 02:03:29 0° 5° (N) 2,621 6.8 -22.3°
